EW9741 Weather Reports


Display with metric or nautical units.
time (UTC)temp
F
wind
direction
speed
MPH
gust
MPH
rain 1hr
in
rain 24hr
in
rain mn
in
humidity
%
barometer
mb
20260906033031 70 25 0.0 0.0 0.00 0.46 0.42 93 1012.0
20260906031530 70 55 0.0 0.0 0.00 0.46 0.42 93 1012.1
20260906030029 69 330 0.0 0.0 0.00 0.46 0.42 93 1012.0
20260906024528 69 330 0.0 0.0 0.00 0.46 0.42 93 1012.1
20260906023029 69 103 0.0 0.0 0.00 0.46 0.42 93 1012.0
20260906021529 69 164 0.0 0.0 0.00 0.46 0.42 93 1012.1
20260906020029 69 164 0.0 0.0 0.00 0.46 0.42 93 1012.3
20260906014540 69 152 0.0 0.0 0.00 0.46 0.42 93 1012.3
20260906013028 69 45 0.0 0.0 0.00 0.46 0.42 93 1012.4
20260906011536 69 282 0.0 0.0 0.00 0.46 0.42 92 1012.4
20260906010025 69 173 0.0 0.0 0.00 0.46 0.42 92 1011.7
20260906004534 69 293 0.0 0.0 0.09 0.46 0.42 92 1011.5
20260906003038 69 62 0.0 0.0 0.42 0.46 0.42 91 1011.2
20260906001525 69 197 0.0 0.0 0.42 0.46 0.42 91 1011.1
20260906000024 69 208 0.0 0.0 0.42 0.46 0.42 90 1011.2
20260905234522 70 34 2.0 17.0 0.38 0.42 0.38 89 1011.8
20260905233019 79 291 13.0 35.0 0.01 0.05 0.01 74 1012.3
20260905231515 82 233 0.0 0.0 0.00 0.04 0.00 80 1011.0
20260905230016 82 160 0.0 0.0 0.00 0.04 0.00 79 1010.7
20260905224522 83 139 0.0 0.0 0.00 0.05 0.00 77 1010.8
20260905223008 84 153 0.0 0.0 0.00 0.05 0.00 75 1010.9
20260905221504 85 145 0.0 0.0 0.00 0.05 0.00 71 1010.8
20260905220008 86 165 0.0 0.0 0.00 0.05 0.00 68 1010.6
20260905214506 86 105 0.0 0.0 0.00 0.05 0.05 69 1010.4
20260905213005 86 65 0.0 0.0 0.00 0.05 0.05 66 1010.5
20260905211504 86 5 0.0 0.0 0.00 0.05 0.05 67 1010.6
20260905210058 85 121 0.0 0.0 0.00 0.05 0.05 67 1010.9
20260905204602 84 81 0.0 0.0 0.01 0.05 0.05 70 1011.0
20260905203059 84 116 0.0 0.0 0.03 0.05 0.05 72 1011.1
20260905201554 83 148 0.0 0.0 0.03 0.05 0.05 74 1011.1
20260905194552 87 291 0.0 0.0 0.02 0.04 0.04 62 1011.7
20260905193105 89 307 0.0 0.0 0.00 0.02 0.02 55 1011.6
20260905191556 90 314 0.0 0.0 0.00 0.02 0.02 54 1011.9
20260905190052 88 264 0.0 0.0 0.00 0.02 0.02 54 1012.0
20260905184549 89 288 0.0 3.0 0.00 0.02 0.02 51 1012.4
20260905183047 89 231 0.0 5.0 0.00 0.02 0.02 52 1012.3
20260905181548 89 302 0.0 0.0 0.00 0.02 0.02 52 1012.3
20260905180046 89 282 0.0 0.0 0.00 0.02 0.02 54 1012.4
20260905174545 89 220 0.0 0.0 0.00 0.02 0.02 53 1012.2
20260905173042 88 231 0.0 0.0 0.00 0.02 0.02 55 1012.2
20260905171540 87 114 0.0 0.0 0.00 0.02 0.02 57 1012.5
20260905170046 85 292 0.0 0.0 0.00 0.02 0.02 60 1012.7
20260905164536 84 293 0.0 0.0 0.00 0.02 0.02 60 1013.0
20260905163034 83 145 0.0 0.0 0.00 0.02 0.02 64 1013.1
20260905161533 82 296 0.0 0.0 0.00 0.02 0.02 61 1013.1
20260905160040 82 197 0.0 0.0 0.00 0.02 0.02 63 1013.2
20260905154528 81 186 0.0 2.0 0.00 0.02 0.02 68 1013.1
20260905153036 79 308 0.0 0.0 0.00 0.02 0.02 71 1013.0
20260905151527 78 274 0.0 5.0 0.00 0.02 0.02 72 1013.0
20260905150027 78 297 0.0 0.0 0.00 0.02 0.02 73 1013.0
20260905144533 77 206 0.0 4.0 0.00 0.02 0.02 75 1012.7
20260905143029 76 203 0.0 3.0 0.00 0.02 0.02 77 1012.7
20260905141526 75 127 0.0 0.0 0.00 0.02 0.02 78 1013.0
20260905140026 74 165 0.0 0.0 0.00 0.02 0.02 80 1013.6
20260905134525 73 168 0.0 0.0 0.00 0.02 0.02 82 1014.4
20260905133025 72 181 0.0 5.0 0.00 0.02 0.02 83 1014.5
20260905131538 71 188 0.0 0.0 0.00 0.02 0.02 83 1014.9
20260905130026 71 152 0.0 0.0 0.00 0.02 0.02 83 1014.7
20260905124532 70 99 0.0 0.0 0.00 0.02 0.02 83 1014.5
20260905123024 70 37 0.0 1.0 0.00 0.02 0.02 83 1014.4
20260905121525 70 57 0.0 7.0 0.00 0.02 0.02 84 1014.3
20260905120022 0 0.0 0.0 0.00 0.02 0.02 1014.4
20260905114532 0 0.0 0.0 0.00 0.02 0.02 1014.3
20260905113023 0 0.0 0.0 0.00 0.02 0.02 1014.4
20260905111509 0 0.0 0.0 0.00 0.02 0.02 1014.5
20260905110007 0 0.0 0.0 0.01 0.02 0.02 1015.0
20260905104503 0 0.0 0.0 0.01 0.02 0.02 1014.8
20260905103100 71 34 10.0 21.0 0.01 0.02 0.02 80 1014.8
20260905101557 72 48 11.0 26.0 0.01 0.02 0.02 83 1014.1
20260905100107 73 302 0.0 0.0 0.00 0.01 0.01 90 1012.7
20260905094556 72 216 0.0 0.0 0.00 0.01 0.01 90 1012.5
20260905093100 72 153 0.0 0.0 0.00 0.01 0.01 91 1012.3
20260905091601 72 153 0.0 0.0 0.00 0.01 0.01 91 1012.3
20260905090054 72 153 0.0 0.0 0.00 0.01 0.01 91 1012.3
20260905084556 72 153 0.0 0.0 0.00 0.01 0.01 91 1012.4
20260905083053 72 153 0.0 0.0 0.00 0.01 0.01 91 1012.6
20260905081559 72 153 0.0 0.0 0.00 0.01 0.01 91 1012.6
20260905080058 72 153 0.0 0.0 0.00 0.01 0.01 91 1012.4
20260905074553 72 153 0.0 0.0 0.00 0.01 0.01 91 1012.1
20260905073051 72 153 0.0 0.0 0.00 0.01 0.01 91 1011.9
20260905071556 72 153 0.0 0.0 0.00 0.01 0.01 91 1011.9
20260905070051 72 153 0.0 0.0 0.00 0.01 0.01 91 1011.9
20260905064550 73 149 0.0 0.0 0.00 0.01 0.01 91 1012.1
20260905063058 73 154 0.0 0.0 0.00 0.01 0.01 91 1012.5
20260905061604 73 145 0.0 0.0 0.00 0.01 0.01 90 1012.7
20260905060045 73 145 0.0 0.0 0.00 0.01 0.01 90 1012.7
20260905054544 73 149 0.0 0.0 0.00 0.01 0.01 90 1013.0
20260905053052 73 149 0.0 0.0 0.00 0.01 0.01 90 1013.2
20260905051545 73 209 0.0 0.0 0.00 0.01 0.01 90 1013.3
20260905050042 74 143 0.0 0.0 0.00 0.01 0.01 89 1013.5
20260905044542 74 142 0.0 0.0 0.00 0.01 0.01 89 1013.4
20260905043042 74 139 0.0 0.0 0.00 0.01 0.01 89 1013.4
20260905041544 74 129 0.0 0.0 0.00 0.01 0.01 89 1013.5
20260905040041 74 117 0.0 0.0 0.00 0.01 0.01 89 1013.4
20260905034541 74 117 0.0 0.0 0.00 0.01 0.01 89 1013.5